Home > Weather > Yuzhno-Sakhalinsk > Past weeks

Flag for Russia Past Weather in Yuzhno-Sakhalinsk, Russia — Yesterday and Last 2 Weeks

Now
59 °F

Clear.


Feels Like: 58 °F
Forecast: 48 / 66 °F
Wind: 6 mph from Northeast

Location: Yuzhno Airport-Sakhalinsk

Current Time: Aug 27, 2016 at 9:08:31 PM

Latest Report: Aug 27, 2016 at 8:30 PM


Visibility: N/A

Pressure: 29.98 "Hg

Humidity: 77%

Dew Point: 52 °F

Location of Yuzhno-SakhalinskLocation

Past Weather in Yuzhno-Sakhalinsk — Graph

°F

Yuzhno-Sakhalinsk Temperature Yesterday

Maximum temperature yesterday: 72 °F (at 3:00 PM)
Minimum temperature yesterday: 52 °F (at 10:30 PM)
Average temperature yesterday: 64 °F

High & Low Weather Summary for the Past Weeks

 TemperatureHumidityPressure
High81 °F (Aug 14, 1:00 PM)100% (Aug 13, 2:00 AM)29.98 "Hg (Aug 13, 2:00 AM)
Low48 °F (Aug 27, 3:00 AM)44% (Aug 24, 3:30 PM)29.24 "Hg (Aug 18, 3:00 AM)
Average68 °F90%29.74 "Hg
* Reported Aug 12 8:00 PM — Aug 27 8:00 PM, Yuzhno-Sakhalinsk, Weather by CustomWeather, © 2016

Note: Actual official high and low records may vary slightly from our data, if they occured in-between our weather recording intervals... More about our weather records

Advertising

Yuzhno-Sakhalinsk Weather History for the Previous 24 Hours

Scroll right to see more
 ConditionsComfort  
Time TempWeatherWind HumidityBarometerVisibility
8:00 PM
Sat, Aug 27
61 °FPassing clouds.10 mph72%29.98 "HgN/A
7:30 PM63 °FClear.8 mph73%29.98 "HgN/A
7:00 PM64 °FClear.6 mph68%29.95 "HgN/A
6:30 PM66 °FClear.10 mph64%29.95 "HgN/A
6:00 PM68 °FClear.13 mph56%29.95 "HgN/A
5:30 PM68 °FClear.15 mph53%29.92 "HgN/A
5:00 PM70 °FClear.15 mph53%29.92 "HgN/A
4:30 PM70 °FClear.10 mph50%29.92 "HgN/A
4:00 PM70 °FClear.10 mph50%29.92 "HgN/A
3:30 PM70 °FClear.10 mph50%29.92 "HgN/A
3:00 PM70 °FClear.15 mph53%29.92 "HgN/A
2:30 PM70 °FClear.15 mph57%29.92 "HgN/A
2:00 PM70 °FClear.13 mph57%29.92 "HgN/A
1:30 PM70 °FClear.10 mph60%29.95 "HgN/A
1:00 PM70 °FClear.8 mph60%29.95 "HgN/A
12:30 PM68 °FClear.10 mph60%29.95 "HgN/A
12:00 PM68 °FClear.10 mph64%29.92 "HgN/A
11:30 AM66 °FClear.13 mph68%29.92 "HgN/A
11:00 AM64 °FClear.13 mph68%29.92 "HgN/A
10:30 AM63 °FClear.15 mph73%29.92 "HgN/A
10:00 AM63 °FClear.13 mph73%29.92 "HgN/A
9:30 AM61 °FClear.10 mph83%29.92 "HgN/A
9:00 AM57 °FClear.10 mph94%29.89 "HgN/A
8:30 AM55 °FClear.8 mph94%29.89 "HgN/A
8:00 AM52 °FClear.8 mph100%29.89 "HgN/A
7:30 AM50 °FClear.6 mph100%29.89 "HgN/A
7:00 AM48 °FClear.3 mph100%29.89 "HgN/A
6:30 AM48 °FClear.3 mph100%29.86 "HgN/A
6:00 AM48 °FClear.6 mph100%29.86 "HgN/A
5:00 AM48 °FClear.6 mph100%29.86 "HgN/A
4:00 AM48 °FClear.6 mph100%29.83 "HgN/A
3:00 AM48 °FClear.6 mph100%29.83 "HgN/A
2:00 AM50 °FClear.6 mph100%29.83 "HgN/A
1:00 AM50 °FClear.6 mph100%29.83 "HgN/A
12:00 AM50 °FClear.3 mph100%29.80 "HgN/A
11:00 PM
Fri, Aug 26
52 °FPassing clouds.6 mph100%29.77 "HgN/A
10:30 PM52 °FPassing clouds.1 mph100%29.77 "HgN/A
10:00 PM54 °FPassing clouds.1 mph94%29.77 "HgN/A
9:30 PM55 °FPassing clouds.3 mph88%29.74 "HgN/A
9:00 PM59 °FPassing clouds.6 mph77%29.74 "HgN/A
Weather by CustomWeather, © 2016

See weather overviewHow to use our weather pages